When you browse on this site, cookies collect data to enhance your experience and personalize the content and advertising you see.
Visit our Privacy Policy to learn more. By continuing to use the site, you agree to this use of cookies and data.
  • în România
  • Lista ţărilor
  • Pe 7 zile
  • Temperatura apei
  • Meteo pe hartă
  • Widget-uri
  • user-avatar
    Intrare

    Meteo pe oră la Eisenstadt

    Astăzi, 22 Octombrie, Marţi

    Timp Temperatura Precipitaţii Vânt Presiune Umiditate
    00:00 +14°C° 0 mm 1 m/s 725 mmHg 89%
    01:00 +14°C° 0 mm 1 m/s 726 mmHg 88%
    02:00 +14°C° 0 mm 1 m/s 726 mmHg 89%
    03:00 +14°C° 0 mm 1 m/s 725 mmHg 89%
    04:00 +13°C° 0 mm 1 m/s 725 mmHg 90%
    05:00 +13°C° 0 mm 1 m/s 726 mmHg 90%
    06:00 +13°C° 0 mm 1 m/s 726 mmHg 90%
    07:00 +12°C° 0 mm 0 m/s 727 mmHg 86%
    08:00 +15°C° 0 mm 1 m/s 727 mmHg 80%
    09:00 +18°C° 0 mm 1 m/s 727 mmHg 73%
    10:00 +20°C° 0 mm 1 m/s 727 mmHg 66%
    11:00 +20°C° 0 mm 1 m/s 727 mmHg 65%
    12:00 +21°C° 0 mm 1 m/s 727 mmHg 63%
    13:00 +22°C° 0 mm 1 m/s 727 mmHg 61%
    14:00 +21°C° 0 mm 1 m/s 727 mmHg 65%
    15:00 +21°C° 0 mm 1 m/s 726 mmHg 69%
    16:00 +20°C° 0 mm 1 m/s 726 mmHg 72%
    17:00 +19°C° 0 mm 1 m/s 726 mmHg 77%
    18:00 +16°C° 0 mm 1 m/s 726 mmHg 82%
    19:00 +14°C° 0 mm 0 m/s 726 mmHg 87%
    20:00 +14°C° 0 mm 0 m/s 726 mmHg 88%
    21:00 +13°C° 0 mm 0 m/s 726 mmHg 88%
    22:00 +14°C° 0 mm 1 m/s 726 mmHg 89%
    23:00 +14°C° 0 mm 1 m/s 726 mmHg 89%

    Mâine, 23 Octombrie, Miercuri

    Timp Temperatura Precipitaţii Vânt Presiune Umiditate
    00:00 +14°C° 0 mm 1 m/s 726 mmHg 89%
    01:00 +14°C° 0 mm 1 m/s 726 mmHg 89%
    02:00 +14°C° 0 mm 1 m/s 725 mmHg 90%
    03:00 +13°C° 0 mm 1 m/s 725 mmHg 90%
    04:00 +13°C° 0 mm 1 m/s 725 mmHg 90%
    05:00 +13°C° 0 mm 1 m/s 725 mmHg 91%
    06:00 +13°C° 0 mm 1 m/s 725 mmHg 91%
    07:00 +13°C° 0 mm 1 m/s 725 mmHg 92%
    08:00 +15°C° 0 mm 1 m/s 725 mmHg 84%
    09:00 +17°C° 0 mm 2 m/s 725 mmHg 75%
    10:00 +19°C° 0 mm 3 m/s 725 mmHg 67%
    11:00 +20°C° 0 mm 3 m/s 725 mmHg 62%
    12:00 +21°C° 0 mm 4 m/s 724 mmHg 58%
    13:00 +22°C° 0 mm 4 m/s 724 mmHg 53%
    14:00 +21°C° 0 mm 4 m/s 724 mmHg 57%
    15:00 +20°C° 0 mm 3 m/s 723 mmHg 61%
    16:00 +19°C° 0 mm 3 m/s 723 mmHg 66%
    17:00 +18°C° 0 mm 3 m/s 722 mmHg 70%
    18:00 +17°C° 0 mm 3 m/s 722 mmHg 75%
    19:00 +16°C° 0 mm 3 m/s 722 mmHg 79%
    20:00 +14°C° 0 mm 3 m/s 722 mmHg 81%
    21:00 +14°C° 0 mm 3 m/s 722 mmHg 83%
    22:00 +13°C° 0 mm 3 m/s 722 mmHg 85%
    23:00 +13°C° 0 mm 3 m/s 722 mmHg 86%

    Poimâine, 24 Octombrie, Joi

    Timp Temperatura Precipitaţii Vânt Presiune Umiditate
    00:00 +13°C° 0 mm 3 m/s 721 mmHg 87%
    01:00 +12°C° 0 mm 3 m/s 721 mmHg 88%
    02:00 +12°C° 0 mm 3 m/s 721 mmHg 88%
    03:00 +12°C° 0 mm 3 m/s 720 mmHg 87%
    04:00 +12°C° 0 mm 3 m/s 720 mmHg 86%
    05:00 +12°C° 0 mm 3 m/s 720 mmHg 85%
    06:00 +11°C° 0 mm 3 m/s 720 mmHg 84%
    07:00 +11°C° 0 mm 3 m/s 720 mmHg 83%
    08:00 +13°C° 0 mm 4 m/s 720 mmHg 74%
    09:00 +15°C° 0 mm 4 m/s 720 mmHg 66%
    10:00 +17°C° 0 mm 5 m/s 720 mmHg 57%
    11:00 +19°C° 0 mm 5 m/s 720 mmHg 54%
    12:00 +20°C° 0 mm 4 m/s 720 mmHg 51%
    13:00 +22°C° 0 mm 4 m/s 720 mmHg 47%
    14:00 +21°C° 0 mm 4 m/s 719 mmHg 51%
    15:00 +20°C° 0 mm 4 m/s 719 mmHg 55%
    16:00 +19°C° 0 mm 3 m/s 719 mmHg 59%
    17:00 +18°C° 0 mm 3 m/s 719 mmHg 63%
    18:00 +17°C° 0 mm 2 m/s 719 mmHg 68%
    19:00 +15°C° 0 mm 2 m/s 719 mmHg 72%
    20:00 +15°C° 0 mm 2 m/s 720 mmHg 73%
    21:00 +15°C° 0 mm 1 m/s 720 mmHg 74%
    22:00 +14°C° 0 mm 1 m/s 721 mmHg 75%
    23:00 +14°C° 0 mm 1 m/s 721 mmHg 75%

    25 Octombrie, Vineri

    Timp Temperatura Precipitaţii Vânt Presiune Umiditate
    00:00 +14°C° 0 mm 1 m/s 722 mmHg 76%
    01:00 +14°C° 0 mm 1 m/s 722 mmHg 77%
    02:00 +13°C° 0 mm 1 m/s 722 mmHg 79%
    03:00 +13°C° 0 mm 1 m/s 723 mmHg 80%
    04:00 +13°C° 0 mm 1 m/s 723 mmHg 82%
    05:00 +13°C° 0 mm 1 m/s 723 mmHg 82%
    06:00 +13°C° 0 mm 2 m/s 724 mmHg 83%
    07:00 +13°C° 0 mm 2 m/s 725 mmHg 83%
    08:00 +14°C° 0 mm 3 m/s 725 mmHg 74%
    09:00 +17°C° 0 mm 3 m/s 726 mmHg 64%
    10:00 +19°C° 0 mm 4 m/s 727 mmHg 55%
    11:00 +19°C° 0 mm 3 m/s 727 mmHg 52%
    12:00 +20°C° 0 mm 3 m/s 727 mmHg 50%
    13:00 +21°C° 0 mm 2 m/s 727 mmHg 48%
    14:00 +20°C° 0 mm 2 m/s 726 mmHg 53%
    15:00 +19°C° 0 mm 2 m/s 726 mmHg 58%
    16:00 +18°C° 0 mm 2 m/s 726 mmHg 64%
    17:00 +16°C° 0 mm 2 m/s 726 mmHg 68%
    18:00 +15°C° 0 mm 2 m/s 726 mmHg 72%
    19:00 +14°C° 0 mm 1 m/s 726 mmHg 77%
    20:00 +13°C° 0 mm 1 m/s 726 mmHg 78%
    21:00 +13°C° 0 mm 1 m/s 726 mmHg 80%
    22:00 +13°C° 0 mm 1 m/s 726 mmHg 81%
    23:00 +13°C° 0 mm 1 m/s 726 mmHg 83%

    26 Octombrie, Sâmbătă

    Timp Temperatura Precipitaţii Vânt Presiune Umiditate
    00:00 +12°C° 0 mm 1 m/s 725 mmHg 84%
    01:00 +12°C° 0 mm 1 m/s 725 mmHg 85%
    02:00 +12°C° 0 mm 2 m/s 725 mmHg 87%
    03:00 +12°C° 0 mm 2 m/s 725 mmHg 88%
    04:00 +10°C° 0 mm 2 m/s 724 mmHg 89%
    05:00 +10°C° 0 mm 2 m/s 724 mmHg 88%
    06:00 +10°C° 0 mm 2 m/s 725 mmHg 88%
    07:00 +10°C° 0 mm 2 m/s 725 mmHg 88%
    08:00 +13°C° 0 mm 1 m/s 725 mmHg 79%
    09:00 +16°C° 0 mm 1 m/s 725 mmHg 69%
    10:00 +19°C° 0 mm 1 m/s 726 mmHg 60%
    11:00 +20°C° 0 mm 1 m/s 725 mmHg 57%
    12:00 +21°C° 0 mm 1 m/s 725 mmHg 53%
    13:00 +22°C° 0 mm 1 m/s 725 mmHg 50%
    14:00 +21°C° 0 mm 1 m/s 724 mmHg 55%
    15:00 +20°C° 0 mm 1 m/s 724 mmHg 60%
    16:00 +19°C° 0 mm 1 m/s 723 mmHg 65%
    17:00 +18°C° 0 mm 1 m/s 723 mmHg 69%
    18:00 +16°C° 0 mm 1 m/s 724 mmHg 73%
    19:00 +14°C° 0 mm 1 m/s 724 mmHg 77%
    20:00 +14°C° 0 mm 1 m/s 724 mmHg 77%
    21:00 +14°C° 0 mm 1 m/s 724 mmHg 76%
    22:00 +14°C° 0 mm 1 m/s 724 mmHg 76%
    23:00 +14°C° 0 mm 1 m/s 724 mmHg 77%

    27 Octombrie, Duminică

    Timp Temperatura Precipitaţii Vânt Presiune Umiditate
    00:00 +14°C° 0 mm 1 m/s 724 mmHg 77%
    01:00 +13°C° 0 mm 1 m/s 724 mmHg 78%
    02:00 +13°C° 0 mm 1 m/s 724 mmHg 77%
    03:00 +13°C° 0 mm 1 m/s 724 mmHg 77%
    04:00 +12°C° 0 mm 1 m/s 724 mmHg 77%
    05:00 +12°C° 0 mm 1 m/s 724 mmHg 76%
    06:00 +12°C° 0 mm 1 m/s 725 mmHg 74%
    07:00 +12°C° 0 mm 1 m/s 725 mmHg 73%
    08:00 +14°C° 0 mm 1 m/s 725 mmHg 68%
    09:00 +15°C° 0 mm 1 m/s 726 mmHg 63%
    10:00 +17°C° 0 mm 2 m/s 727 mmHg 58%
    11:00 +17°C° 0 mm 2 m/s 727 mmHg 58%
    12:00 +17°C° 0 mm 2 m/s 726 mmHg 57%
    13:00 +18°C° 0 mm 3 m/s 726 mmHg 57%
    14:00 +17°C° 0 mm 3 m/s 726 mmHg 61%
    15:00 +16°C° 0 mm 2 m/s 726 mmHg 64%
    16:00 +15°C° 0 mm 2 m/s 726 mmHg 68%
    17:00 +14°C° 0 mm 2 m/s 726 mmHg 69%
    18:00 +13°C° 0 mm 2 m/s 726 mmHg 70%
    19:00 +12°C° 0 mm 1 m/s 727 mmHg 72%
    20:00 +12°C° 0 mm 1 m/s 727 mmHg 71%
    21:00 +12°C° 0 mm 1 m/s 727 mmHg 71%
    22:00 +11°C° 0 mm 1 m/s 727 mmHg 71%
    23:00 +11°C° 0 mm 1 m/s 727 mmHg 70%

    28 Octombrie, Luni

    Timp Temperatura Precipitaţii Vânt Presiune Umiditate
    00:00 +11°C° 0 mm 1 m/s 726 mmHg 69%
    01:00 +11°C° 0 mm 1 m/s 726 mmHg 68%
    02:00 +11°C° 0 mm 1 m/s 726 mmHg 67%
    03:00 +11°C° 0 mm 1 m/s 725 mmHg 66%
    04:00 +10°C° 0 mm 1 m/s 725 mmHg 66%
    05:00 +10°C° 0.1 mm 1 m/s 725 mmHg 68%
    06:00 +10°C° 0.1 mm 1 m/s 725 mmHg 71%
    07:00 +9°C° 0.1 mm 1 m/s 724 mmHg 74%
    08:00 +10°C° 0.1 mm 1 m/s 724 mmHg 73%
    09:00 +10°C° 0.1 mm 1 m/s 724 mmHg 73%
    10:00 +11°C° 0.1 mm 1 m/s 724 mmHg 73%
    11:00 +12°C° 0 mm 1 m/s 724 mmHg 72%
    12:00 +12°C° 0 mm 1 m/s 724 mmHg 71%
    13:00 +13°C° 0 mm 1 m/s 724 mmHg 70%
    14:00 +13°C° 0 mm 1 m/s 724 mmHg 72%
    15:00 +12°C° 0 mm 1 m/s 723 mmHg 74%
    16:00 +12°C° 0 mm 1 m/s 723 mmHg 76%
    17:00 +12°C° 0 mm 1 m/s 723 mmHg 78%
    18:00 +11°C° 0 mm 1 m/s 723 mmHg 80%
    19:00 +9°C° 0 mm 0 m/s 723 mmHg 82%
    20:00 +9°C° 0 mm 0 m/s 723 mmHg 83%
    21:00 +9°C° 0 mm 0 m/s 723 mmHg 84%
    22:00 +9°C° 0 mm 0 m/s 723 mmHg 85%
    23:00 +9°C° 0 mm 0 m/s 723 mmHg 85%
    Arată mai mult